Location: Brienzwiler
(46.7508°N, 8.1014°E)
Time: 17:06:30
(UTC+00:00)

ATLAS 5 CENTAUR R/B - Pass Details

Date: 05 July 2020
Orbit: 534 x 1124 km, 63.4° (Epoch: 06 August)

Event Time Altitude Azimuth Distance (km) Brightness Sun altitude
Rises 21:05:02 0° 232° (SW) 2,710 4.8 -13.0°
Reaches altitude 10° 21:07:10 10° 237° (WSW) 1,856 4.0 -13.2°
Maximum altitude 21:11:12 53° 315° (NW) 749 2.4 -13.6°
Drops below altitude 10° 21:15:49 10° 33° (NNE) 2,111 4.6 -14.0°
Sets 21:18:24 0° 38° (NE) 3,127 5.4 -14.3°
